FW0202 Weather Reports


Display with metric or nautical units.
time (UTC)temp
F
wind
direction
speed
MPH
gust
MPH
rain 1hr
in
rain 24hr
in
rain mn
in
humidity
%
barometer
mb
20260905201632 73 188 4.0 6.0 0.00 0.00 0.00 51 994.3
20260905201339 73 173 4.0 5.0 0.00 0.00 0.00 51 994.3
20260905200615 72 179 4.0 5.0 0.00 0.00 0.00 54 994.0
20260905200113 72 176 4.0 5.0 0.00 0.00 0.00 53 993.9
20260905195556 73 176 3.0 5.0 0.00 0.00 0.00 54 994.1
20260905195051 73 180 4.0 5.0 0.00 0.00 0.00 53 994.0
20260905194548 74 176 4.0 5.0 0.00 0.00 0.00 49 993.8
20260905194044 73 171 4.0 6.0 0.00 0.00 0.00 51 993.7
20260905193536 73 178 4.0 6.0 0.00 0.00 0.00 51 993.7
20260905193256 73 184 4.0 8.0 0.00 0.00 0.00 51 993.5
20260905192532 73 173 4.0 8.0 0.00 0.00 0.00 51 993.5
20260905192247 74 183 4.0 7.0 0.00 0.00 0.00 51 993.4
20260905191523 73 179 4.0 6.0 0.00 0.00 0.00 52 993.5
20260905191032 74 180 5.0 7.0 0.00 0.00 0.00 53 993.3
20260905190956 74 178 4.0 7.0 0.00 0.00 0.00 51 993.3
20260905190010 74 178 4.0 6.0 0.00 0.00 0.00 53 993.2
20260905185518 73 187 4.0 6.0 0.00 0.00 0.00 54 993.2
20260905184952 73 183 3.0 6.0 0.00 0.00 0.00 55 993.2
20260905184448 73 174 4.0 6.0 0.00 0.00 0.00 55 992.9
20260905183943 73 184 4.0 6.0 0.00 0.00 0.00 56 993.1
20260905183439 73 204 3.0 6.0 0.00 0.00 0.00 55 993.0
20260905182935 73 181 4.0 6.0 0.00 0.00 0.00 55 993.3
20260905182434 73 181 3.0 6.0 0.00 0.00 0.00 56 993.2
20260905181934 72 181 4.0 6.0 0.00 0.00 0.00 57 992.9
20260905181629 72 188 3.0 5.0 0.00 0.00 0.00 58 993.2
20260905180907 72 174 4.0 5.0 0.00 0.00 0.00 58 993.4
20260905180416 73 179 3.0 5.0 0.00 0.00 0.00 57 993.1
20260905175859 73 178 4.0 6.0 0.00 0.00 0.00 57 993.1
20260905175356 73 180 4.0 6.0 0.00 0.00 0.00 57 993.1
20260905174841 72 179 5.0 6.0 0.00 0.00 0.00 57 993.1
20260905174333 72 176 4.0 6.0 0.00 0.00 0.00 57 992.8
20260905174036 72 179 4.0 6.0 0.00 0.00 0.00 58 992.9
20260905173307 72 172 3.0 6.0 0.00 0.00 0.00 58 992.8
20260905172754 72 175 4.0 6.0 0.00 0.00 0.00 58 992.9
20260905172250 71 181 4.0 6.0 0.00 0.00 0.00 60 993.2
20260905172009 72 180 5.0 6.0 0.00 0.00 0.00 61 993.0
20260905171231 71 165 4.0 6.0 0.00 0.00 0.00 61 993.5
20260905170727 71 180 4.0 5.0 0.00 0.00 0.00 61 993.1
20260905170210 71 179 4.0 5.0 0.00 0.00 0.00 61 993.1
20260905165702 72 174 4.0 6.0 0.00 0.00 0.00 61 993.0
20260905165412 72 186 4.0 6.0 0.00 0.00 0.00 60 992.9
20260905164618 72 181 4.0 5.0 0.00 0.00 0.00 60 992.9
20260905164114 72 181 4.0 5.0 0.00 0.00 0.00 59 992.8
20260905163608 72 186 4.0 5.0 0.00 0.00 0.00 59 992.7
20260905163104 72 184 4.0 5.0 0.00 0.00 0.00 59 992.8
20260905162548 72 180 4.0 5.0 0.00 0.00 0.00 60 992.8
20260905162044 72 178 4.0 5.0 0.00 0.00 0.00 60 992.8
20260905161759 72 183 5.0 5.0 0.00 0.00 0.00 60 993.1
20260905161030 72 180 3.0 5.0 0.00 0.00 0.00 60 993.1
20260905160531 72 178 3.0 5.0 0.00 0.00 0.00 59 993.2
20260905160243 72 184 4.0 6.0 0.00 0.00 0.00 59 993.2
20260905155514 72 181 4.0 6.0 0.00 0.00 0.00 58 993.3
20260905155229 72 188 4.0 5.0 0.00 0.00 0.00 58 993.3
20260905154455 72 177 3.0 5.0 0.00 0.00 0.00 58 993.5
20260905154213 72 177 4.0 5.0 0.00 0.00 0.00 58 993.4
20260905153427 72 178 4.0 5.0 0.00 0.00 0.00 57 993.3
20260905152912 71 177 4.0 6.0 0.00 0.00 0.00 58 993.4
20260905152408 71 173 4.0 6.0 0.00 0.00 0.00 60 993.4
20260905151905 71 172 4.0 6.0 0.00 0.00 0.00 58 993.9
20260905151400 71 168 4.0 6.0 0.00 0.00 0.00 60 994.0
20260905150900 72 179 4.0 6.0 0.00 0.00 0.00 60 993.7
20260905150352 72 178 4.0 5.0 0.00 0.00 0.00 58 993.7
20260905145838 72 181 4.0 5.0 0.00 0.00 0.00 57 993.6
20260905145329 72 179 4.0 5.0 0.00 0.00 0.00 57 993.6
20260905144829 71 190 3.0 6.0 0.00 0.00 0.00 57 993.6
20260905144338 71 181 4.0 6.0 0.00 0.00 0.00 56 993.7
20260905143811 71 178 4.0 6.0 0.00 0.00 0.00 55 993.8
20260905143258 71 182 5.0 5.0 0.00 0.00 0.00 55 993.8
20260905142752 71 179 4.0 5.0 0.00 0.00 0.00 55 993.5
20260905142237 71 184 4.0 5.0 0.00 0.00 0.00 56 993.6
20260905141734 70 178 4.0 5.0 0.00 0.00 0.00 58 993.7
20260905141240 70 184 4.0 5.0 0.00 0.00 0.00 58 993.8
20260905140727 70 172 3.0 5.0 0.00 0.00 0.00 59 993.8
20260905140432 70 186 4.0 5.0 0.00 0.00 0.00 60 993.8
20260905135706 70 179 4.0 5.0 0.00 0.00 0.00 61 994.0
20260905135142 71 184 3.0 5.0 0.00 0.00 0.00 60 994.0
20260905134638 70 180 4.0 5.0 0.00 0.00 0.00 62 994.1
20260905134353 71 176 4.0 5.0 0.00 0.00 0.00 61 994.2
20260905133629 71 182 3.0 5.0 0.00 0.00 0.00 62 994.2
20260905133125 71 178 3.0 6.0 0.00 0.00 0.00 62 994.2
20260905132611 71 183 4.0 6.0 0.00 0.00 0.00 63 994.3
20260905132107 71 178 4.0 6.0 0.00 0.00 0.00 63 994.4
20260905131553 71 195 3.0 5.0 0.00 0.00 0.00 63 994.5
20260905131048 71 180 3.0 5.0 0.00 0.00 0.00 62 994.5
20260905131027 71 180 4.0 5.0 0.00 0.00 0.00 62 994.7
20260905130040 71 181 3.0 5.0 0.00 0.00 0.00 62 994.6
20260905125525 71 188 4.0 5.0 0.00 0.00 0.00 63 994.8
20260905125025 71 186 4.0 5.0 0.00 0.00 0.00 62 994.8
20260905124749 72 177 4.0 5.0 0.00 0.00 0.00 62 994.9
20260905124257 72 180 4.0 5.0 0.00 0.00 0.00 62 994.7
20260905123525 72 183 4.0 5.0 0.00 0.00 0.00 62 994.9
20260905123250 72 182 4.0 6.0 0.00 0.00 0.00 61 994.9
20260905122521 72 180 5.0 6.0 0.00 0.00 0.00 61 994.8
20260905122016 71 177 5.0 5.0 0.00 0.00 0.00 62 994.9
20260905121512 71 186 4.0 5.0 0.00 0.00 0.00 63 994.9
20260905121008 71 179 4.0 5.0 0.00 0.00 0.00 64 995.1
20260905120454 71 180 4.0 6.0 0.00 0.00 0.00 65 995.2
20260905115950 71 180 4.0 6.0 0.00 0.00 0.00 65 995.1
20260905115445 71 180 4.0 6.0 0.00 0.00 0.00 65 995.1
20260905114941 71 181 4.0 6.0 0.00 0.00 0.00 65 995.2
20260905114437 71 177 4.0 5.0 0.00 0.00 0.00 64 995.1
20260905113923 71 183 4.0 5.0 0.00 0.00 0.00 64 995.1
20260905113423 71 180 4.0 5.0 0.00 0.00 0.00 63 995.1
20260905112914 71 181 4.0 5.0 0.00 0.00 0.00 63 995.0
20260905112409 71 182 3.0 5.0 0.00 0.00 0.00 64 995.2
20260905111853 71 178 4.0 5.0 0.00 0.00 0.00 64 995.2
20260905111834 71 180 4.0 5.0 0.00 0.00 0.00 65 995.2
20260905110845 71 176 4.0 5.0 0.00 0.00 0.00 66 995.1
20260905110342 71 182 4.0 5.0 0.00 0.00 0.00 66 995.1
20260905110041 71 176 4.0 5.0 0.00 0.00 0.00 66 995.0
20260905105312 72 181 4.0 5.0 0.00 0.00 0.00 66 995.2
20260905105027 71 178 4.0 5.0 0.00 0.00 0.00 66 995.1
20260905104252 71 180 5.0 5.0 0.00 0.00 0.00 66 995.1
20260905103750 71 185 5.0 5.0 0.00 0.00 0.00 68 995.1
20260905103236 71 181 4.0 5.0 0.00 0.00 0.00 70 995.1
20260905102720 71 184 3.0 5.0 0.00 0.00 0.00 70 995.1
20260905102222 71 176 4.0 5.0 0.00 0.00 0.00 70 995.0
20260905101712 71 176 4.0 5.0 0.00 0.00 0.00 70 995.0
20260905101415 71 178 4.0 5.0 0.00 0.00 0.00 69 994.9
20260905100644 71 175 4.0 5.0 0.00 0.00 0.00 69 994.9
20260905100119 72 179 3.0 5.0 0.00 0.00 0.00 68 994.9
20260905095615 71 173 3.0 5.0 0.00 0.00 0.00 69 995.0
20260905095109 72 176 3.0 5.0 0.00 0.00 0.00 71 995.0
20260905094605 72 174 4.0 5.0 0.00 0.00 0.00 71 994.8
20260905094101 73 173 4.0 5.0 0.00 0.00 0.00 70 994.7
20260905093557 73 177 4.0 5.0 0.00 0.00 0.00 69 994.8
20260905093041 73 182 3.0 5.0 0.00 0.00 0.00 68 994.7
20260905092536 74 184 3.0 5.0 0.00 0.00 0.00 67 994.6
20260905092021 74 182 4.0 4.0 0.00 0.00 0.00 66 994.7
20260905091516 74 187 3.0 4.0 0.00 0.00 0.00 66 994.6
20260905091012 74 192 3.0 4.0 0.00 0.00 0.00 65 994.8
20260905090507 74 180 3.0 4.0 0.00 0.00 0.00 65 994.6
20260905085949 74 185 3.0 4.0 0.00 0.00 0.00 66 994.5
20260905085439 74 189 3.0 4.0 0.00 0.00 0.00 66 994.5
20260905084914 75 178 4.0 4.0 0.00 0.00 0.00 66 994.2
20260905084410 75 184 3.0 4.0 0.00 0.00 0.00 66 994.5
20260905083906 75 178 3.0 7.0 0.00 0.00 0.00 66 994.4
20260905083352 75 348 3.0 7.0 0.00 0.00 0.00 66 994.3
20260905082848 75 358 3.0 7.0 0.00 0.00 0.00 66 994.4
20260905082348 75 9 2.0 4.0 0.00 0.00 0.00 66 994.3
20260905081848 75 357 2.0 4.0 0.00 0.00 0.00 67 994.3
20260905081345 76 0 3.0 4.0 0.00 0.00 0.00 66 994.4
20260905081312 76 355 2.0 4.0 0.00 0.00 0.00 66 994.2
20260905080316 76 349 2.0 4.0 0.00 0.00 0.00 65 994.2
20260905075811 76 10 3.0 4.0 0.00 0.00 0.00 65 994.4
20260905075529 76 355 3.0 4.0 0.00 0.00 0.00 65 994.3
20260905075008 77 357 2.0 5.0 0.00 0.00 0.00 64 994.4
20260905074247 77 349 4.0 5.0 0.00 0.00 0.00 63 994.2
20260905073849 78 358 3.0 5.0 0.00 0.00 0.00 63 994.2
20260905073240 78 7 2.0 4.0 0.00 0.00 0.00 62 994.1
20260905072716 78 20 3.0 4.0 0.00 0.00 0.00 61 993.9
20260905072211 79 0 2.0 4.0 0.00 0.00 0.00 61 994.0
20260905071933 79 358 2.0 4.0 0.00 0.00 0.00 60 993.9
20260905071204 80 6 2.0 5.0 0.00 0.00 0.00 59 993.9
20260905070646 80 345 4.0 5.0 0.00 0.00 0.00 58 993.8
20260905070146 80 6 3.0 5.0 0.00 0.00 0.00 57 993.9
20260905065906 80 351 3.0 5.0 0.00 0.00 0.00 57 993.9
20260905065135 81 13 3.0 5.0 0.00 0.00 0.00 57 993.9
20260905064610 81 352 3.0 6.0 0.00 0.00 0.00 57 993.8
20260905064105 81 13 2.0 6.0 0.00 0.00 0.00 57 993.9
20260905063552 82 10 2.0 6.0 0.00 0.00 0.00 56 993.8
20260905063045 82 175 4.0 5.0 0.00 0.00 0.00 56 993.8
20260905062545 82 167 4.0 6.0 0.00 0.00 0.00 57 993.8
20260905062044 82 175 3.0 6.0 0.00 0.00 0.00 61 993.9
20260905061735 82 187 3.0 6.0 0.00 0.00 0.00 59 993.8
20260905061009 82 174 4.0 6.0 0.00 0.00 0.00 60 993.8
20260905060505 83 173 4.0 5.0 0.00 0.00 0.00 60 993.9
20260905060001 83 180 2.0 5.0 0.00 0.00 0.00 59 993.9
20260905055457 83 191 5.0 5.0 0.00 0.00 0.00 58 993.9
20260905054944 83 183 4.0 5.0 0.00 0.00 0.00 56 993.9
20260905054444 84 183 3.0 5.0 0.00 0.00 0.00 59 994.0
20260905053944 84 174 3.0 5.0 0.00 0.00 0.00 54 994.0
20260905053443 85 182 4.0 5.0 0.00 0.00 0.00 50 994.1
20260905052943 85 174 4.0 5.0 0.00 0.00 0.00 42 994.1
20260905052412 85 180 3.0 5.0 0.00 0.00 0.00 43 994.1
20260905051855 85 180 5.0 5.0 0.00 0.00 0.00 40 994.2
20260905051351 85 176 3.0 5.0 0.00 0.00 0.00 40 994.1
20260905050835 85 177 3.0 5.0 0.00 0.00 0.00 39 994.2
20260905050332 85 183 4.0 5.0 0.00 0.00 0.00 38 994.2
20260905045818 86 162 4.0 5.0 0.00 0.00 0.00 39 994.1
20260905045313 85 186 4.0 6.0 0.00 0.00 0.00 37 994.4
20260905044812 86 174 5.0 6.0 0.00 0.00 0.00 38 994.2
20260905044312 86 183 3.0 6.0 0.00 0.00 0.00 37 994.4
20260905043811 86 190 3.0 6.0 0.00 0.00 0.00 36 994.4
20260905043312 87 183 4.0 6.0 0.00 0.00 0.00 36 994.3
20260905042813 86 178 5.0 6.0 0.00 0.00 0.00 35 994.5
20260905042308 86 188 4.0 6.0 0.00 0.00 0.00 36 994.4
20260905041805 86 187 4.0 6.0 0.00 0.00 0.00 37 994.6
20260905041743 87 177 4.0 6.0 0.00 0.00 0.00 35 994.8
20260905040746 87 189 5.0 6.0 0.00 0.00 0.00 34 994.9
20260905040241 87 183 4.0 6.0 0.00 0.00 0.00 36 995.0
20260905035742 87 197 4.0 6.0 0.00 0.00 0.00 34 995.1
20260905035221 87 201 4.0 6.0 0.00 0.00 0.00 33 995.1
20260905034718 86 179 5.0 6.0 0.00 0.00 0.00 35 995.3
20260905034210 86 180 5.0 6.0 0.00 0.00 0.00 33 995.4
20260905033711 86 183 4.0 6.0 0.00 0.00 0.00 34 995.5
20260905033205 86 165 4.0 6.0 0.00 0.00 0.00 34 995.6
20260905032702 86 185 5.0 6.0 0.00 0.00 0.00 36 995.7
20260905032157 86 173 4.0 6.0 0.00 0.00 0.00 34 995.8
20260905031654 87 184 4.0 6.0 0.00 0.00 0.00 33 995.7
20260905031150 85 180 6.0 6.0 0.00 0.00 0.00 35 995.9
20260905030645 87 204 4.0 6.0 0.00 0.00 0.00 38 996.1
20260905030152 87 184 4.0 6.0 0.00 0.00 0.00 34 996.0
20260905025637 87 185 5.0 8.0 0.00 0.00 0.00 33 996.6
20260905025123 87 182 4.0 8.0 0.00 0.00 0.00 34 996.4
20260905024618 87 195 4.0 7.0 0.00 0.00 0.00 34 996.6
20260905024113 87 186 5.0 8.0 0.00 0.00 0.00 32 996.8
20260905023610 86 186 4.0 8.0 0.00 0.00 0.00 32 996.7
20260905023105 85 178 5.0 7.0 0.00 0.00 0.00 31 996.9
20260905022600 87 184 4.0 7.0 0.00 0.00 0.00 34 997.0
20260905022055 86 182 5.0 7.0 0.00 0.00 0.00 37 997.4
20260905021541 87 192 4.0 7.0 0.00 0.00 0.00 37 997.3
20260905021037 86 180 5.0 7.0 0.00 0.00 0.00 36 997.4
20260905020537 86 193 4.0 6.0 0.00 0.00 0.00 40 997.5
20260905020037 86 195 4.0 6.0 0.00 0.00 0.00 35 997.6
20260905015535 86 176 5.0 6.0 0.00 0.00 0.00 40 997.5
20260905015030 84 199 4.0 6.0 0.00 0.00 0.00 41 997.9
20260905014526 85 187 4.0 5.0 0.00 0.00 0.00 39 997.9
20260905014244 85 211 3.0 6.0 0.00 0.00 0.00 39 998.0
20260905013518 84 186 3.0 6.0 0.00 0.00 0.00 44 998.1
20260905013013 84 177 4.0 6.0 0.00 0.00 0.00 43 998.2
20260905012459 84 175 5.0 5.0 0.00 0.00 0.00 45 998.2
20260905011955 84 197 3.0 6.0 0.00 0.00 0.00 44 998.3
20260905011713 84 188 4.0 6.0 0.00 0.00 0.00 46 998.5
20260905010928 85 168 6.0 6.0 0.00 0.00 0.00 45 998.6
20260905010413 84 182 5.0 6.0 0.00 0.00 0.00 43 999.0
20260905005858 83 185 4.0 6.0 0.00 0.00 0.00 50 998.8
20260905005408 83 177 4.0 6.0 0.00 0.00 0.00 51 999.0
20260905004850 82 181 4.0 5.0 0.00 0.00 0.00 52 998.9
20260905004347 82 178 3.0 5.0 0.00 0.00 0.00 49 999.0
20260905003840 81 184 3.0 5.0 0.00 0.00 0.00 49 999.3
20260905003338 80 182 4.0 5.0 0.00 0.00 0.00 51 999.2
20260905002824 80 175 4.0 5.0 0.00 0.00 0.00 51 999.3
20260905002319 78 185 3.0 6.0 0.00 0.00 0.00 56 999.4
20260905001813 79 180 3.0 6.0 0.00 0.00 0.00 55 999.3
20260905001535 80 198 3.0 5.0 0.00 0.00 0.00 55 999.5
20260905000804 79 180 4.0 5.0 0.00 0.00 0.00 55 999.5
20260905000530 78 177 4.0 5.0 0.00 0.00 0.00 57 999.7
20260904235746 79 178 3.0 4.0 0.00 0.00 0.00 55 999.8
20260904235231 80 193 3.0 5.0 0.00 0.00 0.00 53 999.8
20260904234713 78 180 4.0 5.0 0.00 0.00 0.00 57 999.7
20260904234159 78 205 3.0 5.0 0.00 0.00 0.00 57 999.8
20260904233904 77 193 3.0 5.0 0.00 0.00 0.00 59 999.7
20260904233139 77 178 3.0 5.0 0.00 0.00 0.00 59 1000.0
20260904232635 78 174 4.0 5.0 0.00 0.00 0.00 63 1000.0
20260904232131 76 180 3.0 5.0 0.00 0.00 0.00 63 999.9
20260904231616 75 176 2.0 5.0 0.00 0.00 0.00 65 1000.2
20260904231336 75 187 3.0 5.0 0.00 0.00 0.00 67 1000.1
20260904230609 75 180 4.0 4.0 0.00 0.00 0.00 67 1000.2
20260904230105 73 175 3.0 5.0 0.00 0.00 0.00 68 1000.3
20260904225600 73 191 4.0 5.0 0.00 0.00 0.00 69 1000.2
20260904225056 72 195 3.0 4.0 0.00 0.00 0.00 70 1000.2
20260904224542 73 193 3.0 4.0 0.00 0.00 0.00 68 1000.3
20260904224032 74 210 2.0 4.0 0.00 0.00 0.00 69 1000.3
20260904223532 74 170 2.0 4.0 0.00 0.00 0.00 67 1000.3
20260904223032 73 160 4.0 4.0 0.00 0.00 0.00 70 1000.3
20260904222514 71 186 3.0 5.0 0.00 0.00 0.00 73 1000.4
20260904222000 70 180 4.0 5.0 0.00 0.00 0.00 72 1000.3
20260904221715 70 178 4.0 5.0 0.00 0.00 0.00 75 1000.3
20260904220950 70 166 4.0 6.0 0.00 0.00 0.00 73 1000.5
20260904220447 70 168 4.0 6.0 0.00 0.00 0.00 72 1000.5
20260904215930 69 172 4.0 6.0 0.00 0.00 0.00 74 1000.4
20260904215430 70 173 4.0 5.0 0.00 0.00 0.00 72 1000.6
20260904214913 68 171 4.0 4.0 0.00 0.00 0.00 74 1000.4
20260904214400 67 183 3.0 5.0 0.00 0.00 0.00 75 1000.2
20260904214104 65 180 4.0 5.0 0.00 0.00 0.00 78 1000.3
20260904213340 63 173 4.0 5.0 0.00 0.00 0.00 84 1000.4
20260904212830 61 186 3.0 4.0 0.00 0.00 0.00 88 1000.2
20260904212330 60 172 3.0 4.0 0.00 0.00 0.00 90 1000.4
20260904211829 58 182 3.0 4.0 0.00 0.00 0.00 94 1000.3
20260904211313 58 180 3.0 4.0 0.00 0.00 0.00 96 1000.2
20260904210749 57 184 3.0 5.0 0.00 0.00 0.00 96 1000.2
20260904210244 57 176 4.0 5.0 0.00 0.00 0.00 97 1000.2
20260904205730 58 180 3.0 4.0 0.00 0.00 0.00 97 1000.2
20260904205441 58 177 3.0 4.0 0.00 0.00 0.00 97 1000.2
20260904204711 57 188 3.0 5.0 0.00 0.00 0.00 97 1000.1
20260904204156 57 177 3.0 5.0 0.00 0.00 0.00 97 1000.1
20260904203647 57 182 3.0 5.0 0.00 0.00 0.00 97 1000.2
20260904203141 56 177 3.0 5.0 0.00 0.00 0.00 97 1000.1
20260904202637 56 180 4.0 5.0 0.00 0.00 0.00 97 1000.2
20260904202123 56 180 4.0 5.0 0.00 0.00 0.00 97 1000.1